Location: Monfort
(47.1967°N, 0.2115°W)
Time: 11:40:59
(UTC+00:00)

Meteor 2-1 Rocket - Pass Details

Date: 24 October 2020
Orbit: 830 x 906 km, 81.3° (Epoch: 28 November)

Event Time Altitude Azimuth Distance (km) Brightness Sun altitude
Rises 19:36:16 0° 199° (SSW) 3,372 7.4 -27.7°
Reaches altitude 10° 19:38:42 10° 202° (SSW) 2,437 6.7 -28.1°
Maximum altitude 19:44:09 64° 284° (WNW) 920 4.5 -29.0°
Drops below altitude 10° 19:49:39 10° 6° (N) 2,452 6.7 -29.9°
Sets 19:52:06 0° 9° (N) 3,394 7.4 -30.3°
